STARLINK-34050, 64331

Orbit data source: Space-Track

STARLINK-34050, 64331 is a payload satellite owned by SpaceX/Seattle (US) in LEO that was launched on Tue, 10 Jun 2025 UTC via an FALCON 9 launch vehicle from the Air Force Eastern Test Range (AFETR). Payload-class satellites include a variety of spacecraft equipped with specific instruments for various scientific and technological missions. These include communications satellites like Starlink; space stations such as the ISS; scientific satellites like the Hubble; Earth observation satellites from companies like Planet Labs, Umbra, and HawkEye 360; GPS; miniature CubeSats for education and research; and military/defense satellites.

Loading next visibility...
Identifier
64331, 2025-124Q
Orbit
LEO
Country
Flag of USUS
Related business
Manufacturer
SpaceX/Seattle
Mission
Operational Commercial Communications
Bus & Motor
STARLINK V2MO, Unknown motor
Mass
575 kg wet, ~530 kg dry
Launch date (UTC)
2025-06-10 (11 months ago)
Launch vehicle
FALCON 9
Launch site
Air Force Eastern Test Range (AFETR)
Object type
Payload
Rocket body
Debris
Shape & HBR
Box + 2 Pan, 17.7 m
Radar Cross Section
36.964 m², Large (>1 m²)

Expand to show TLE details & history
Last TLE update: 4 hours ago

TLE from 4 hours ago
0 STARLINK-34050
1 64331U 25124Q   26120.17281538  .00024452  00000-0  89462-3 0  9996
2 64331  43.0018 191.0038 0001604 273.1647  86.9021 15.27599660 50717
Epoch: 2026-04-30T04:08Z
TLE epoch observation values (Epoch: 2026-04-30T04:08:51.248Z)
Latitude
-0.00004°
Longitude
-89.33301°
Altitude
482.707 km
Speed
7.626 km/s
True Right ascension
12h 44m 00s
True Declination
0° 00' 00"
Sunlit
Object was in full shadow at epoch
Visualization orbit readout
Latitude
Unknown
Longitude
Unknown
Altitude
Unknown
Speed
Unknown
Apparent Right ascension
Unknown
Apparent Declination
Unknown
Sunlit
N/A
Visualization observer readout
Local Sidereal Time
15:38:15
Azimuth
Unknown
Elevation
Unknown
Doppler factor
Unknown
Orbital elements
Apogee altitude
486.036 km
Perigee altitude
483.834 km
Semi-major axis
6,863.072 km
Eccentricity
0.00016
Inclination
43.0018°
RAAN
191.0038°
Arg. of periapsis
273.1647°
True anomaly
86.92045°
Mean anomaly
86.9021°
Eccentric anomaly
86.91128°
Mean motion
3.81738 °/min
Orbital period
94.31 mins
BSTAR
0.00089462
Loading maneuver chart data...
Computing Atmospheric mass density...
Loading historical data...
Loading historical data...
Loading historical data...
Loading historical data...
Loading historical data...
Loading historical data...
Loading historical data...

Documentation

Showing up to 5 results
|